• Processing (Info)

  • MPEC 2022-S248 : 2022 SH10

    The following Minor Planet Electronic Circular may be linked-to from your own Web pages, but must not otherwise be redistributed electronically.

    A form allowing access to any MPEC is at the bottom of this page.


    Read MPEC 2022-S247 Read MPEC 2022-S249


    M.P.E.C. 2022-S248                           Issued 2022 September 26, 07:19 UT
    
         The Minor Planet Electronic Circulars contain information on unusual
             minor planets and routine data on comets.  They are published
        on behalf of Division F of the International Astronomical Union by the
              Minor Planet Center, Smithsonian Astrophysical Observatory,
                              Cambridge, MA 02138, U.S.A.
    
                 Prepared using the Tamkin Foundation Computer Network
    
                                  MPC@CFA.HARVARD.EDU
                URL https://www.minorplanetcenter.net/    ISSN 1523-6714
    
                                    2022 SH10                                
    
    
    Observations:
         K22S10H  C2022 09 18.26046 00 21 48.91 -18 26 47.8          18.8 GVES248703
         K22S10H  C2022 09 18.27143 00 21 48.66 -18 36 31.5                VES248703
         K22S10H* C2022 09 21.40265600 24 35.501-34 02 32.31         21.54wUES248F52
         K22S10H  C2022 09 21.41234800 24 35.024-34 03 29.56         21.27wUES248F52
         K22S10H  C2022 09 21.42202000 24 34.531-34 04 26.03         21.26wUES248F52
         K22S10H ^C2022 09 22.38949900 24 49.953-35 20 09.95         21.54GVES248568
         K22S10H ^C2022 09 22.39146600 24 49.862-35 20 17.78         21.52GVES248568
         K22S10H ^C2022 09 22.39244400 24 49.811-35 20 21.48         21.58GVES248568
         K22S10H ^C2022 09 25.39122500 25 06.935-37 20 53.50         22.49GVES248568
         K22S10H ^C2022 09 25.39243300 25 06.895-37 20 55.43         22.61GVES248568
         K22S10H ^C2022 09 25.39364100 25 06.854-37 20 57.15         22.48GVES248568
    
    Observer details:
    568 Mauna Kea.  Observers R. Wainscoat, A. Acohido, E. Bertin.  Measurers R.
        Weryk, R. Wainscoat.  3.6-m Canada-France-Hawaii Telescope + CCD.
    703 Catalina Sky Survey.  Observer D. Rankin.  Measurers B. Gray, D. Rankin,
        F. C. Shelly.  0.68-m Schmidt + 10K CCD.
    F52 Pan-STARRS 2, Haleakala.  Observers J. Bulger, T. Lowe, A. Schultz, I.
        Smith.  Measurers K. Chambers, S. Chastel, T. de Boer, J. Fairlamb, H.
        Gao, M. Huber, C.-C. Lin, E. Magnier, Y. Ramanjooloo, R. Wainscoat, R.
        Weryk.  1.8-m Ritchey-Chretien + CCD.
    
    Orbital elements:
    2022 SH10                                                Earth MOID = 0.0073 AU
    Epoch 2022 Aug. 9.0 TT = JDT 2459800.5                  Veres                   
    M   5.42690              (2000.0)            P               Q                  
    n   0.47194134     Peri.   97.55939     +0.04486859     +0.99797488             
    a   1.6338444      Node   174.38636     -0.99682038     +0.04175043             
    e   0.5753746      Incl.   27.44730     +0.06584784     -0.04799007             
    P   2.09           H   26.08          G   0.15           U   9                  
    Residuals in seconds of arc
    220918 703  0.9+  0.4-    220921 F52  0.3+  0.0     220925 568  0.0   0.0
    220918 703  1.2-  0.1+    220922 568  0.0   0.1-    220925 568  0.0   0.1-
    220921 F52  0.1-  0.1+    220922 568  0.0   0.1-    220925 568  0.0   0.1+
    220921 F52  0.1+  0.0     220922 568  0.1-  0.1+
    
    Ephemeris:
    2022 SH10                a,e,i = 1.63, 0.58, 27                  q = 0.6938
    Date    TT    R. A. (2000) Decl.     Delta      r    Elong.  Phase     V
    2022 08 27    12 21 00.1 +41 28 14   0.2681  0.8264    40.8   127.0    28.2
    ...
    2022 09 11    12 28 15.8 +47 15 44   0.07478 0.9557    45.3   131.5    26.2
    ...
    2022 09 19    00 22 57.9 -25 53 33   0.02821 1.0302   154.1    25.2    19.6
    ...
    2022 09 25    00 25 03.9 -37 09 38   0.1039  1.0868   141.9    34.7    22.8
    2022 09 26    00 25 06.5 -37 33 28   0.1167  1.0963   141.2    34.9    23.1
    2022 09 27    00 25 07.9 -37 51 25   0.1295  1.1057   140.6    35.1    23.3
    ...
    2022 10 03    00 25 10.6 -38 32 48   0.2072  1.1623   137.6    35.5    24.4
    ...
    2022 10 11    00 25 35.6 -38 09 58   0.3130  1.2370   134.1    35.4    25.5
    ...
    2022 10 26    00 28 44.2 -35 55 09   0.5203  1.3730   127.2    35.2    26.8
    
    M. P. C. Staff               (C) Copyright 2022 MPC           M.P.E.C. 2022-S248
    


    Read MPEC 2022-S247 Read MPEC 2022-S249


    MPEC number:

    Enter an MPEC number in one of the following forms:

    • 1997-B01 (the full form)
    • J97B01 (the packed version of the full form)
    • B01 (the abbreviated form)